Torna al catalogo

TRANSIT 2A

AttivoNavigazioneLEO
NORAD 45·PAYLOAD·🇺🇸 United States

Lanciato Jun 22, 1960 da Cape Canaveral Space Force Station

Loading…

Prossimi Passaggi (prossime 24 ore)

TLE

AggiornatoSource: Space-Track

Epoca: Sep 9, 2026, 22:07 UTC

1 00045U 60007A   26252.92211661  .00000183  00000-0  71545-4 0  9995
2 00045  66.6931 136.0866 0240864  97.5286 265.3246 14.36020430392211

Traccia TRANSIT 2A in tempo reale con AllMySat

Download on the App Store